TimeCST,TemperatureF,Dew PointF,Humidity,Sea Level PressureIn,VisibilityMPH,Wind Direction,Wind SpeedMPH,Gust SpeedMPH,PrecipitationIn,Events,Conditions,WindDirDegrees,DateUTC
12:53 AM,46.9,39.0,74,30.16,10.0,WNW,8.1,-,N/A,,Clear,300,2012-02-05 06:53:00
1:53 AM,46.0,37.9,73,30.16,10.0,NW,10.4,-,N/A,,Clear,310,2012-02-05 07:53:00
2:53 AM,45.0,37.0,74,30.17,10.0,NW,9.2,-,N/A,,Clear,310,2012-02-05 08:53:00
3:53 AM,44.1,36.0,73,30.17,10.0,WNW,10.4,-,N/A,,Clear,300,2012-02-05 09:53:00
4:53 AM,43.0,36.0,76,30.18,10.0,WNW,9.2,-,N/A,,Clear,300,2012-02-05 10:53:00
5:53 AM,43.0,36.0,76,30.19,10.0,WNW,10.4,-,N/A,,Clear,300,2012-02-05 11:53:00
6:53 AM,41.0,36.0,82,30.20,10.0,WNW,9.2,-,N/A,,Clear,300,2012-02-05 12:53:00
7:53 AM,43.0,36.0,76,30.22,10.0,NW,10.4,-,N/A,,Clear,310,2012-02-05 13:53:00
8:53 AM,45.0,37.0,74,30.23,10.0,NW,13.8,24.2,N/A,,Clear,310,2012-02-05 14:53:00
9:53 AM,46.9,39.0,74,30.25,10.0,NNW,13.8,-,N/A,,Partly Cloudy,330,2012-02-05 15:53:00
10:53 AM,48.9,39.9,71,30.28,10.0,NW,11.5,-,N/A,,Scattered Clouds,320,2012-02-05 16:53:00
11:53 AM,50.0,39.0,66,30.25,10.0,NNW,12.7,18.4,N/A,,Mostly Cloudy,340,2012-02-05 17:53:00
12:01 PM,50.0,39.2,66,30.25,10.0,NNW,8.1,-,N/A,,Mostly Cloudy,330,2012-02-05 18:01:00
12:53 PM,50.0,39.0,66,30.25,10.0,North,8.1,-,N/A,,Overcast,350,2012-02-05 18:53:00
1:53 PM,48.9,39.0,69,30.25,10.0,NW,8.1,-,N/A,,Overcast,320,2012-02-05 19:53:00
2:53 PM,50.0,39.0,66,30.25,10.0,NNW,5.8,-,N/A,,Overcast,330,2012-02-05 20:53:00
3:02 PM,48.2,37.4,66,30.24,10.0,NNW,8.1,-,N/A,,Overcast,330,2012-02-05 21:02:00
3:53 PM,48.9,37.9,66,30.25,10.0,North,5.8,-,N/A,,Overcast,350,2012-02-05 21:53:00
4:53 PM,48.0,37.9,68,30.26,10.0,NNW,6.9,-,N/A,,Overcast,330,2012-02-05 22:53:00
5:53 PM,46.9,37.9,71,30.27,10.0,NNW,4.6,-,N/A,,Overcast,330,2012-02-05 23:53:00
6:53 PM,46.9,37.9,71,30.28,10.0,Calm,Calm,-,N/A,,Overcast,0,2012-02-06 00:53:00
7:10 PM,46.4,37.4,71,30.28,10.0,NNW,5.8,-,N/A,,Overcast,330,2012-02-06 01:10:00
7:53 PM,46.9,37.0,68,30.29,10.0,North,5.8,-,N/A,,Overcast,10,2012-02-06 01:53:00
8:53 PM,46.0,37.0,71,30.30,10.0,North,8.1,-,N/A,,Overcast,360,2012-02-06 02:53:00
9:53 PM,45.0,37.9,76,30.30,10.0,North,4.6,-,N/A,,Overcast,10,2012-02-06 03:53:00
10:53 PM,44.1,37.9,79,30.30,10.0,North,8.1,-,N/A,,Overcast,10,2012-02-06 04:53:00
11:53 PM,44.1,37.9,79,30.30,10.0,North,3.5,-,N/A,,Overcast,350,2012-02-06 05:53:00